Location: Canquisqu�len
(47.9979°N, 3.3180°W)
Time: 04:17:04
(UTC+00:00)

Daily predictions for brighter satellites

Satellite Brightness Start Highest point End
(mag) Time Altitude Azimuth Time Altitude Azimuth Time Altitude Azimuth
ATLAS CENTAUR R/B 3.6 00:07:30 18° SW 00:11:47 85° SE 00:26:11 10° NE
Cosmos 1825 4.3 00:13:02 15° ESE 00:14:09 16° E 00:16:34 10° NE
Cosmos 1328 4.2 00:13:42 36° SW 00:14:55 52° WNW 00:18:45 10° N
Cosmos 1812 Rocket 3.5 00:13:39 10° NNW 00:18:00 74° W 00:19:25 42° S
Cosmos 1408 3.8 00:19:18 27° ESE 00:20:05 30° E 00:23:22 10° NNE
SL-16 R/B 2.2 00:19:56 30° SSW 00:22:54 90° WNW 00:28:38 10° NNE
Cosmos 405 Rocket 4.2 00:23:36 21° ESE 00:24:29 23° E 00:27:26 10° NE
USA 229 DEB 3.9 00:22:36 30° S 00:25:25 49° ESE 00:31:56 10° NE
USA 229 3.9 00:22:43 30° S 00:25:32 49° ESE 00:32:02 10° NE
X-37B 3.3 00:28:46 11° E 00:28:46 11° E 00:28:55 10° E
Cosmos 2237 Rocket 3.5 00:20:56 10° WSW 00:26:06 36° NW 00:31:18 10° NNE
MTI 4.5 00:24:35 10° N 00:27:27 40° WNW 00:27:55 37° W
Cosmos 1898 Rocket 4.1 00:27:23 10° NNW 00:32:31 52° ENE 00:36:10 19° SE
NOSS 8 (F) 4.5 00:33:59 50° ESE 00:33:59 50° ESE 00:36:46 10° NE
NOSS 3-1 (C) 3.2 00:31:10 30° SSW 00:34:01 80° SE 00:40:22 10° NE
Cosmos 2369 Rocket 2.4 00:29:11 10° NNW 00:34:55 68° ENE 00:38:58 20° SE
Cosmos 1356 3.9 00:37:29 41° SE 00:37:59 45° E 00:41:16 10° NNE
SJ 16-02 1.7 00:34:37 10° NNW 00:38:52 49° WSW 00:40:01 38° SSW
GP-B 3.4 00:35:52 10° N 00:40:14 55° W 00:41:51 35° SW
NOSS 2-3 (E) 3.5 00:42:31 39° SSW 00:44:03 79° SE 00:48:55 10° NE
EP 2 4.4 00:44:03 73° SE 00:44:06 73° SE 00:47:08 10° NE
NOSS 3-1 (A) 3.4 00:42:41 33° S 00:45:02 58° ESE 00:51:10 10° NE
USA 215 3.7 00:40:49 10° NE 00:47:15 62° NNW 00:53:40 10° WSW
Cosmos 1825 Rocket 3.5 00:45:41 39° S 00:47:19 89° ESE 00:51:48 10° N
ALOS 2 4.5 00:51:48 15° WSW 00:53:02 17° W 00:55:56 10° NW
Cosmos 2142 Rocket 4.4 00:47:02 10° N 00:53:11 80° W 00:56:33 29° S
CZ-3B R/B 4.2 00:41:51 10° W 00:55:28 48° NNW 00:59:19 10° ENE
Aureole 3 4.3 00:54:44 10° NNW 00:58:20 38° W 00:59:40 30° SW
Cosmos 2297 4.5 00:54:24 10° NW 00:59:30 36° WSW 01:01:28 28° SW
NOSS 8 (H) 4.3 01:00:24 53° SE 01:00:31 54° SE 01:03:25 10° NE
Cosmos 1606 4.5 00:58:20 10° NNE 01:01:38 26° ENE 01:04:12 14° SE
Helios 1A 3.3 01:00:06 26° SE 01:02:16 61° ENE 01:06:25 10° N
Cosmos 468 Rocket 4.0 01:00:57 33° S 01:03:19 75° ESE 01:08:34 10° NNE
SL-16 R/B 3.5 01:00:27 10° SE 01:06:16 44° ENE 01:12:05 10° N
USA 305 4.3 01:10:32 22° SE 01:10:53 22° SE 01:14:13 10° E
Cosmos 1953 Rocket 3.5 01:10:29 36° SSW 01:12:14 77° W 01:16:40 10° N
Lacrosse 4 Rocket 3.2 01:10:01 10° NNW 01:13:43 31° NE 01:17:20 10° ESE
Cosmos 2098 Rocket 3.8 01:15:08 24° SSE 01:18:11 54° E 01:22:32 10° NNE
Cosmos 1763 Rocket 3.4 01:15:44 30° SSW 01:18:16 85° WNW 01:23:26 10° NNE
BREEZE-M R/B 3.9 01:18:11 21° SE 01:18:24 21° SE 01:21:36 10° E
Cosmos 1869 4.1 01:16:00 10° NNW 01:19:49 39° W 01:21:00 31° SW
Cosmos 1437 Rocket 2.6 01:16:52 10° N 01:20:46 88° E 01:22:19 35° SSE
Resurs 1-4 Rocket 3.0 01:16:04 10° NNE 01:21:04 40° E 01:24:24 19° SSE
USA 267 3.8 01:19:19 25° S 01:22:02 35° SW 01:27:56 10° WNW
Cosmos 1892 3.6 01:21:02 29° WSW 01:22:24 39° WNW 01:26:05 10° N
In-Cosmos 22 Rocket 4.4 01:20:44 26° SW 01:23:46 58° WNW 01:29:10 10° N
SL-4 R/B 2.8 01:20:27 10° W 01:24:09 47° N 01:27:37 10° ENE
NOSS 2-3 (D) 4.1 01:22:26 21° WSW 01:25:05 56° NW 01:30:01 10° NE
Cosmos 1943 Rocket 3.3 01:23:16 10° NW 01:27:48 27° WSW 01:29:31 23° SW
Cosmos 1842 Rocket 3.5 01:26:32 10° N 01:30:54 87° ENE 01:33:14 27° S
ADEOS II 3.8 01:28:15 10° NE 01:32:31 24° E 01:36:44 10° SSE
USA 306 3.9 01:32:05 28° SSE 01:33:08 31° SE 01:36:54 10° ENE
Lacrosse 5 rocket 3.7 01:30:17 10° NW 01:33:10 22° NNE 01:36:04 10° ENE
EO 1 Del DPAF 4.2 01:30:01 10° N 01:33:26 35° WNW 01:34:57 24° WSW
Meteor 2-8 Rocket 4.5 01:28:09 10° N 01:34:20 86° E 01:38:53 19° S
Exosat Rocket 3.9 01:30:27 24° SSW 01:34:32 76° WNW 01:39:46 10° NNE
Cosmos 921 Rocket 3.5 01:32:38 27° SSE 01:34:35 49° ESE 01:38:38 10° NNE
FALCON 9 DEB 3.2 01:31:35 10° WNW 01:35:00 78° NNE 01:38:23 10° ESE
Cosmos 1943 3.2 01:33:25 26° SSW 01:36:41 88° ESE 01:42:22 10° NNE
CZ-2D R/B 2.5 01:34:44 10° NNE 01:39:52 54° E 01:43:15 21° S
MOZ.5/SAFIR/RUBIN 5/SL-8 3.8 01:38:05 26° S 01:40:44 70° WSW 01:45:31 10° NNW
Cosmos 1603 3.7 01:41:52 24° SW 01:45:24 79° WNW 01:51:05 10° NNE
Cosmos 2151 4.1 01:44:56 16° SSE 01:47:47 37° E 01:51:40 10° NNE
Cosmos 1825 2.9 01:47:48 27° SW 01:49:18 40° WNW 01:52:53 10° N
Cosmos 1076 Rocket 3.6 01:49:45 25° S 01:52:08 73° E 01:56:24 10° NNE
Cosmos 1437 2.5 01:51:56 10° N 01:54:43 71° ENE 01:55:51 31° SSE
Cosmos 1408 4.4 01:53:33 16° WSW 01:55:06 21° WNW 01:57:57 10° NNW
Cosmos 540 Rocket 3.5 01:55:00 24° SW 01:58:07 70° WNW 02:03:15 10° NNE
Cosmos 1242 Rocket 2.6 01:54:55 10° NNW 01:58:27 58° W 02:00:05 29° SSW
DELTA 2 R/B (1) 4.2 01:57:41 22° SW 02:00:17 33° S 02:05:13 10° ESE
Cosmos 405 Rocket 4.0 01:58:43 19° WSW 02:00:20 27° WNW 02:03:31 10° N
X-37B 0.8 02:01:04 28° WSW 02:02:19 46° S 02:05:23 10° ESE
Cosmos 2058 3.6 02:00:33 24° SW 02:02:34 41° WNW 02:06:28 10° N
Cosmos 2221 3.1 01:59:07 10° NNW 02:03:10 41° W 02:05:12 24° SSW
BREEZE-M DEB (TANK) 1.7 02:02:04 10° W 02:04:59 65° N 02:07:13 10° E
Cosmos 841 Rocket 3.6 02:03:07 22° SW 02:06:26 70° WNW 02:11:35 10° NNE
SL-16 R/B 4.2 02:03:38 10° W 02:07:50 21° NW 02:12:04 10° N
Cosmos 1656 Rocket 4.3 02:02:57 10° NW 02:08:11 39° WSW 02:11:35 20° SSW
NOSS 2-2 (E) 3.0 02:08:03 28° SSW 02:09:45 72° SE 02:13:32 10° NE
CREW DRAGON DEMO-1 DEB 3.6 02:10:06 14° W 02:11:59 39° N 02:14:20 10° ENE
Cosmos 2292 Rocket 4.3 02:09:53 13° SSE 02:12:00 28° E 02:14:38 10° NNE
FALCON 9 DEB 3.9 02:10:50 10° WNW 02:13:54 50° NNE 02:16:57 10° E
Cosmos 1937 Rocket 4.4 02:09:53 10° NW 02:14:36 33° W 02:17:26 20° SSW
USA 229 DEB 4.4 02:10:11 10° WSW 02:16:26 47° NW 02:23:10 10° NE
Cosmos 1782 4.1 02:12:40 10° N 02:16:26 38° ENE 02:20:12 10° SE
USA 229 4.4 02:10:16 10° WSW 02:16:32 48° NW 02:23:16 10° NE
USA 307 3.0 02:14:11 23° SW 02:16:42 58° SE 02:20:53 10° ENE
Cosmos 2369 Rocket 3.6 02:14:10 10° NW 02:18:23 22° W 02:20:42 17° SW
USA 281 4.1 02:12:37 10° SE 02:18:56 53° NE 02:25:18 10° NNW
Meteor 2-15 Rocket 4.4 02:13:00 10° NNW 02:19:09 74° W 02:24:43 13° S
Cosmos 2026 Rocket 4.0 02:16:00 16° S 02:21:05 88° W 02:27:29 10° N
ARGOS Delta rocket 4.4 02:17:00 10° N 02:22:24 58° WNW 02:26:25 18° SSW
NOSS 2-2 (C) 3.0 02:21:26 24° SSW 02:23:25 76° SE 02:27:10 10° NE
Aureole 3 Rocket 3.5 02:21:03 10° NNW 02:24:50 48° W 02:28:38 16° SSW
ERBS 4.2 02:24:39 14° SSE 02:26:09 18° SE 02:28:24 10° E
Helios 1B rocket 2.5 02:23:30 10° N 02:27:35 70° WNW 02:30:26 19° SSW
Cosmos 1633 3.0 02:27:25 22° SW 02:29:23 45° WNW 02:32:48 10° N
FALCON 9 DEB 3.0 02:27:48 10° WNW 02:30:55 77° NNE 02:33:59 10° ESE
SL-19 R/B 4.2 02:26:57 10° NNE 02:32:14 89° WNW 02:36:51 15° SSW
ATLAS 5 CENTAUR R/B 1.4 02:29:34 20° SW 02:32:19 87° SE 02:36:49 10° NE
USA 308 2.9 02:29:31 18° SW 02:32:36 73° SSE 02:36:51 10° ENE
Cosmos 2298 Rocket 4.0 02:27:48 10° NNW 02:33:09 84° WSW 02:38:29 10° SSE
UNK 4.3 02:32:45 17° SSW 02:35:57 40° W 02:40:21 10° NNW
Cosmos 1814 Rocket 4.3 02:32:04 17° SW 02:36:01 58° WNW 02:41:09 10° NNE
SeaSat 1 4.0 02:32:05 10° NE 02:36:18 28° ESE 02:40:29 10° SSE
Cosmos 1606 4.0 02:34:04 10° NNW 02:37:15 25° W 02:39:10 17° SW
FALCON 9 DEB 3.1 02:34:40 10° WNW 02:37:46 71° NNE 02:40:52 10° ESE
FALCON 9 DEB 2.8 02:38:04 10° WNW 02:41:11 85° NNE 02:44:16 10° ESE
ADEOS Rocket 3.3 02:34:15 10° S 02:41:33 74° WSW 02:48:10 10° NNW
Cosmos 1933 3.4 02:39:41 10° NNW 02:43:44 60° W 02:47:30 12° S
IRIDIUM 104 4.3 02:38:57 10° N 02:44:13 90° ESE 02:49:26 10° S
Cosmos 2150 Rocket 4.0 02:39:30 10° NNW 02:44:42 73° WSW 02:49:56 10° SSE
USA 290 3.1 02:44:01 17° SW 02:46:09 38° WNW 02:49:12 10° N
SL-16 R/B 3.2 02:44:57 13° SSW 02:49:57 37° W 02:55:38 10° NNW
Meteor 1-28 Rocket 3.1 02:46:18 10° S 02:50:05 78° WSW 02:53:55 10° NNW
USA 305 2.9 02:46:34 12° WSW 02:50:25 84° NNW 02:54:41 10° ENE
DELTA 2 DEB (DPAF) 4.1 02:46:40 10° S 02:51:06 74° WSW 02:55:34 10° NNW
Lacrosse 4 Rocket 2.1 02:48:42 10° NW 02:52:22 32° WSW 02:55:59 10° S
Cosmos 1125 Rocket 3.5 02:47:20 10° NNW 02:52:36 76° WSW 02:57:52 10° SSE
IRIDIUM 114 4.3 02:48:08 10° N 02:53:22 76° W 02:58:34 10° S
Cosmos 1151 Rocket 3.0 02:49:53 10° N 02:54:10 88° E 02:58:26 10° S
Meteor 1-29 3.2 02:54:22 10° N 02:57:43 53° WNW 03:00:31 14° SSW
OE (NEXTSAT) 4.3 02:56:34 10° W 02:59:59 62° S 03:03:23 10° ESE
ARIANE 5 R/B 3.7 02:55:34 10° NNE 03:00:14 38° E 03:04:54 10° SSE
Resurs 1-4 Rocket 3.1 02:56:04 10° N 03:00:47 34° WNW 03:05:28 10° SW
CZ-4C R/B 3.2 02:57:00 10° S 03:01:22 34° ESE 03:06:30 10° NE
IRIDIUM 103 4.4 02:57:19 10° N 03:02:30 64° W 03:07:38 10° S
Cosmos 1766 Rocket 3.6 02:59:21 10° S 03:03:48 89° E 03:08:19 10° N
SL-4 R/B 2.1 03:00:24 10° WNW 03:04:02 64° NNE 03:07:28 10° E
Landsat 4 4.0 03:01:10 10° N 03:04:52 53° WNW 03:08:18 12° SSW
Cosmos 1408 Rocket 4.4 03:02:11 10° SSE 03:06:29 50° E 03:10:50 10° NNE
USA 238 DEB 4.5 03:00:54 10° NW 03:08:03 63° NE 03:15:32 10° SE
CENTAUR R/B 3.8 03:00:38 10° NW 03:08:32 65° NE 03:17:19 10° SE
IKONOS-2 4.5 03:04:25 10° S 03:08:38 75° WSW 03:12:52 10° NNW
FALCON 9 DEB 4.4 03:08:58 10° W 03:11:33 20° SW 03:14:07 10° S
ADEOS II 2.5 03:07:23 10° N 03:12:30 53° WNW 03:17:35 10° SW
Lacrosse 5 rocket 1.6 03:09:12 10° NW 03:12:47 63° NNE 03:16:28 10° ESE
USA 306 3.2 03:08:38 10° WSW 03:12:52 66° NNW 03:17:06 10° ENE
Cosmos 1862 3.9 03:09:27 10° S 03:13:25 58° E 03:17:24 10° NNE
Okean 3 Rocket 3.6 03:10:19 10° SSW 03:14:41 73° W 03:19:05 10° N
Meteor 2-3 Rocket 4.2 03:13:53 10° SSW 03:19:17 48° WNW 03:24:42 10° N
CZ-2D R/B 3.5 03:15:25 10° N 03:19:36 25° WNW 03:23:46 10° WSW
NOSS 2-2 (D) 4.3 03:18:14 10° WSW 03:21:26 34° NW 03:25:02 10° NNE
ASTEX 1 3.5 03:19:52 10° S 03:24:46 65° W 03:29:41 10° N
Cosmos 1655 Rocket 4.0 03:18:34 10° SSW 03:24:47 80° W 03:31:05 10° N
Cosmos 2151 4.5 03:21:51 10° WSW 03:25:11 22° WNW 03:28:32 10° NNW
IDEFIX/ARIANE 42P 2.7 03:21:38 10° N 03:26:52 70° WNW 03:32:02 10° SSW
COSMOS 2406 4.3 03:28:24 10° S 03:33:41 43° ESE 03:39:01 10° NE
